VIASAT-3

Last updated on Thu Nov 21 2024 00:02:45 GMT+0000 (Coordinated Universal Time)

1 56370U 23060A 24324.77714084 -.00000184 00000+0 00000+0 0 9997 2 56370 0.0149 304.2042 0000319 157.7057 148.2665 1.00271482 5683
UTC large
Height (km)
Speed (km/s)
/
Latitude / Longitude
Inclination (degrees)
Orbital Period (minutes)
Azimuth
Elevation
Range (km)
Doppler Factor

Next 0 passes for location: London (51.5072 / 0.1276)

Sorry there are no passes over London.